TITAN 3C TRANSTAGE DEB, 26048

Orbit data source: Space-Track

TITAN 3C TRANSTAGE DEB, 26048 is space debris in HEO originally from a launch on Tue, 21 Dec 1965 UTC launched from the Air Force Eastern Test Range (AFETR). Debris objects in space refer to the collection of defunct objects orbiting the Earth. Examples of debris include non-operational satellites, rocket bodies, and fragments generated from explosions, collisions, or faulty payload assembly.

Loading next visibility...
TITAN 3C TRANSTAGE DEB details
Identifier
26048, 1965-108AG
Orbit
HEO
Last TLE update5 days ago
Origin
Flag of USUSAF SSD (US)
ManufacturerUnknown
MissionSpacecraft
Bus & MotorUnknown
MassUnknown
Launch date (UTC)
1965-12-21 (59 years ago)
Launch vehicleUnknown
Launch site
Air Force Eastern Test Range (AFETR)
Object type
Payload
Rocket body
Debris
Shape & HBRUnknown
Radar Cross SectionMedium (>0.1 m² and <1 m²)

Expand to show TLE details & history

TLE from 5 days ago
0 TITAN 3C TRANSTAGE DEB
1 26048U 65108AG  24343.42742315  .00005238  00000-0  32694-2 0  9998
2 26048  26.4672  77.9573 6279073 294.6110  14.0082  3.57563623313051
Epoch: 2024-12-08T10:15Z
Definitive object data (Epoch: 2024-12-08T10:15:29.36Z)
Latitude0.00001°
Longitude-153.61663°
Altitude2,303.511 km
Speed8.352 km/s
True Right ascension05h 11m 41s
True Declination0° 00' 00"
Sunlit
Object was in full shadow at TLE epoch
Visualization TLE readout
Latitude15.17296°
Longitude-10.07335°
Altitude19,408.36 km
Speed2.975 km/s
Apparent Right ascension14h 01m 19s
Apparent Declination6° 00' 05"
Sunlit
Object is in daylight
Visualization observer readout
Local Sidereal Time20:46:14
Azimuth281.836° WNW
Elevation-4.67°
Doppler factor1
Orbital elements
Apogee altitude23,035.598 km
Perigee altitude344.995 km
Semi-major axis18,068.434 km
Eccentricity0.6279073
Inclination26.4672°
RAAN77.9573°
Arg. of periapsis294.611°
True anomaly65.62145°
Mean anomaly14.0082°
Eccentric anomaly34.2623°
Mean motion0.89364 °/min
BSTAR0.0032694
Orbital period402.85 mins
Loading maneuver chart data...

TITAN 3C TRANSTAGE DEB Visibility forecast

Observer location: undefined°, undefined

Span
Click to sort rows by Start time (UTC) header in descending order
Start Az.
Max El. time (UTC)
Max El. Az.
Max El.
End time (UTC)
End Az.
275 mins2024-12-14 07:13:22.257Z185.689° SSW2024-12-14 07:34:22.257Z121.284° SE30.673°2024-12-14 11:48:22.257Z92.573° ESE
321 mins2024-12-14 14:28:22.257Z272.369° WNW2024-12-14 16:37:22.257Z253.176° W36.148°2024-12-14 19:49:22.257Z184.62° SSW
|